This is the latest recevied weather packets stored in our database for station/object KB1YYC. If no packets are shown the sender has not sent any weather packets the latest 10 day(s).
| Time | Temp. | Humidity | Pressure | Rain* | Wind** | Luminosity | Snow |
|---|---|---|---|---|---|---|---|
| 1778174786 | 16.11° C | 45% | 1005.5 hPa | 0 mm | - | 796 W/m² | - |
| 1778174484 | 15° C | 46% | 1005.5 hPa | 0 mm | - | 789 W/m² | - |
| 1778174179 | 14.44° C | 46% | 1005.8 hPa | 0 mm | - | 872 W/m² | - |
| 1778173876 | 15.56° C | 47% | 1005.8 hPa | 0 mm | - | 203 W/m² | - |
| 1778173573 | 16.11° C | 50% | 1005.8 hPa | 0 mm | - | 816 W/m² | - |
| 1778173270 | 16.11° C | 47% | 1005.9 hPa | 0 mm | - | 820 W/m² | - |
| 1778172965 | 15.56° C | 47% | 1005.8 hPa | 0 mm | - | 811 W/m² | - |
| 1778172662 | 14.44° C | 50% | 1005.9 hPa | 0 mm | - | 773 W/m² | - |
| 1778172358 | 14.44° C | 49% | 1005.8 hPa | 0 mm | - | 274 W/m² | - |
| 1778172055 | 14.44° C | 48% | 1006.1 hPa | 0 mm | - | 260 W/m² | - |
| 1778171753 | 13.89° C | 51% | 1006 hPa | 0 mm | - | 295 W/m² | - |
| 1778171451 | 13.89° C | 51% | 1006.2 hPa | 0 mm | - | 207 W/m² | - |
| 1778171150 | 13.89° C | 50% | 1006.1 hPa | 0 mm | - | 188 W/m² | - |
| 1778170848 | 15° C | 50% | 1006.1 hPa | 0 mm | - | 188 W/m² | - |
| 1778170544 | 15° C | 51% | 1006.1 hPa | 0 mm | - | 200 W/m² | - |
| 1778170241 | 15° C | 54% | 1006 hPa | 0 mm | - | 293 W/m² | - |
| 1778169937 | 15.56° C | 49% | 1006.1 hPa | 0 mm | - | 847 W/m² | - |
| 1778169633 | 15.56° C | 48% | 1006.4 hPa | 0 mm | - | 812 W/m² | - |
| 1778169329 | 15° C | 52% | 1006.3 hPa | 0 mm | - | 804 W/m² | - |
| 1778169026 | 15.56° C | 51% | 1006.3 hPa | 0 mm | - | 809 W/m² | - |
| 1778168723 | 15.56° C | 48% | 1006.4 hPa | 0 mm | - | 808 W/m² | - |
| 1778168420 | 15.56° C | 52% | 1006.4 hPa | 0 mm | - | 257 W/m² | - |
| 1778168117 | 15° C | 54% | 1006.4 hPa | 0 mm | - | 843 W/m² | - |
| 1778167813 | 14.44° C | 54% | 1006.6 hPa | 0 mm | - | 789 W/m² | - |
| 1778167509 | 15° C | 53% | 1006.5 hPa | 0 mm | - | 135 W/m² | - |
* Rain latest hour (hover to see other rain measurements)
** Current wind speed in m/s (hover to see current wind gust speed)